Time,TemperatureF,DewpointF,PressureIn,WindDirection,WindDirectionDegrees,WindSpeedMPH,WindSpeedGustMPH,Humidity,HourlyPrecipIn,Conditions,Clouds,dailyrainin,SoftwareType,DateUTC
2013-07-20 00:01:00,64.0,60.0,-100.00,South,171,3.0,4.0,88,-99.99,,,-99.99,,2013-07-20 07:01:00,
2013-07-20 00:12:00,64.0,60.0,-100.00,South,179,2.0,3.0,88,-99.99,,,-99.99,,2013-07-20 07:12:00,
2013-07-20 00:33:00,64.0,60.0,-100.00,SSW,210,1.0,4.0,88,-99.99,,,-99.99,,2013-07-20 07:33:00,
2013-07-20 00:44:00,64.0,60.0,-100.00,WSW,241,2.0,3.0,88,-99.99,,,-99.99,,2013-07-20 07:44:00,
2013-07-20 00:53:00,64.0,60.0,-100.00,SSW,195,2.0,4.0,88,-99.99,,,-99.99,,2013-07-20 07:53:00,
2013-07-20 01:11:00,64.0,60.0,-100.00,South,172,1.0,2.0,88,-99.99,,,-99.99,,2013-07-20 08:11:00,
2013-07-20 01:22:00,64.0,60.0,-100.00,SW,233,1.0,3.0,88,-99.99,,,-99.99,,2013-07-20 08:22:00,
2013-07-20 01:52:00,64.0,60.0,-100.00,ENE,68,1.0,3.0,88,-99.99,,,-99.99,,2013-07-20 08:52:00,
2013-07-20 02:01:00,64.0,60.0,-100.00,ENE,68,1.0,3.0,88,-99.99,,,-99.99,,2013-07-20 09:01:00,
2013-07-20 02:53:00,64.0,60.0,-100.00,SW,226,2.0,4.0,88,-99.99,,,-99.99,,2013-07-20 09:53:00,
2013-07-20 03:01:00,64.0,60.0,-100.00,WNW,299,3.0,5.0,88,-99.99,,,-99.99,,2013-07-20 10:01:00,
2013-07-20 03:42:00,64.0,60.0,-100.00,West,265,1.0,2.0,88,-99.99,,,-99.99,,2013-07-20 10:42:00,
2013-07-20 03:52:00,64.0,60.0,-100.00,West,265,1.0,2.0,88,-99.99,,,-99.99,,2013-07-20 10:52:00,
2013-07-20 04:01:00,64.0,60.0,-100.00,South,180,2.0,3.0,88,-99.99,,,-99.99,,2013-07-20 11:01:00,
2013-07-20 04:11:00,64.0,60.0,-100.00,East,87,1.0,2.0,88,-99.99,,,-99.99,,2013-07-20 11:11:00,
2013-07-20 04:21:00,64.0,60.0,-100.00,West,275,1.0,2.0,88,-99.99,,,-99.99,,2013-07-20 11:21:00,
2013-07-20 04:32:00,64.0,60.0,-100.00,NW,316,1.0,2.0,88,-99.99,,,-99.99,,2013-07-20 11:32:00,
2013-07-20 04:43:00,64.0,60.0,-100.00,NE,37,1.0,3.0,88,-99.99,,,-99.99,,2013-07-20 11:43:00,
2013-07-20 04:52:00,64.0,60.0,-100.00,NE,37,1.0,3.0,88,-99.99,,,-99.99,,2013-07-20 11:52:00,
2013-07-20 05:11:00,64.0,60.0,-100.00,WSW,242,2.0,3.0,88,-99.99,,,-99.99,,2013-07-20 12:11:00,
2013-07-20 05:32:00,64.0,60.0,-100.00,NNE,20,2.0,4.0,88,-99.99,,,-99.99,,2013-07-20 12:32:00,
2013-07-20 05:52:00,64.0,61.0,-100.00,SSE,155,2.0,3.0,89,-99.99,,,-99.99,,2013-07-20 12:52:00,
2013-07-20 06:01:00,64.0,61.0,-100.00,SSE,155,2.0,3.0,89,-99.99,,,-99.99,,2013-07-20 13:01:00,
2013-07-20 06:11:00,64.0,61.0,-100.00,SE,132,1.0,2.0,89,-99.99,,,-99.99,,2013-07-20 13:11:00,
2013-07-20 06:32:00,64.0,61.0,-100.00,South,184,1.0,2.0,89,-99.99,,,-99.99,,2013-07-20 13:32:00,
2013-07-20 06:52:00,64.0,60.0,-100.00,South,169,1.0,2.0,88,-99.99,,,-99.99,,2013-07-20 13:52:00,
2013-07-20 07:02:00,64.0,60.0,-100.00,South,169,1.0,2.0,88,-99.99,,,-99.99,,2013-07-20 14:02:00,
2013-07-20 07:11:00,64.0,61.0,-100.00,SSW,202,2.0,4.0,89,-99.99,,,-99.99,,2013-07-20 14:11:00,
2013-07-20 07:32:00,64.0,61.0,-100.00,SW,223,2.0,4.0,89,-99.99,,,-99.99,,2013-07-20 14:32:00,
2013-07-20 07:53:00,64.0,61.0,-100.00,SSW,210,3.0,4.0,89,-99.99,,,-99.99,,2013-07-20 14:53:00,
2013-07-20 08:01:00,64.0,61.0,-100.00,SW,233,3.0,5.0,89,-99.99,,,-99.99,,2013-07-20 15:01:00,
2013-07-20 08:11:00,64.0,61.0,-100.00,SW,233,3.0,5.0,89,-99.99,,,-99.99,,2013-07-20 15:11:00,
2013-07-20 08:44:00,66.0,61.0,-100.00,South,190,2.0,4.0,85,-99.99,,,-99.99,,2013-07-20 15:44:00,
2013-07-20 08:52:00,66.0,61.0,-100.00,South,190,2.0,4.0,85,-99.99,,,-99.99,,2013-07-20 15:52:00,
2013-07-20 09:01:00,66.0,61.0,-100.00,SSW,196,3.0,4.0,83,-99.99,,,-99.99,,2013-07-20 16:01:00,
2013-07-20 09:11:00,66.0,61.0,-100.00,SSW,196,3.0,4.0,83,-99.99,,,-99.99,,2013-07-20 16:11:00,
2013-07-20 09:43:00,66.0,61.0,-100.00,SW,231,4.0,7.0,83,-99.99,,,-99.99,,2013-07-20 16:43:00,
2013-07-20 09:52:00,67.0,61.0,-100.00,SSW,211,4.0,8.0,82,-99.99,,,-99.99,,2013-07-20 16:52:00,
2013-07-20 10:02:00,67.0,61.0,-100.00,SSW,211,4.0,8.0,82,-99.99,,,-99.99,,2013-07-20 17:02:00,
2013-07-20 10:11:00,67.0,61.0,-100.00,SSW,211,4.0,8.0,82,-99.99,,,-99.99,,2013-07-20 17:11:00,
2013-07-20 10:22:00,67.0,62.0,-100.00,SW,222,5.0,9.0,83,-99.99,,,-99.99,,2013-07-20 17:22:00,
2013-07-20 10:32:00,67.0,62.0,-100.00,SSW,205,5.0,8.0,83,-99.99,,,-99.99,,2013-07-20 17:32:00,
2013-07-20 10:43:00,67.0,61.0,-100.00,SW,217,5.0,9.0,82,-99.99,,,-99.99,,2013-07-20 17:43:00,
2013-07-20 10:53:00,67.0,61.0,-100.00,SW,222,5.0,8.0,81,-99.99,,,-99.99,,2013-07-20 17:53:00,
2013-07-20 11:11:00,68.0,62.0,-100.00,SSW,197,4.0,8.0,80,-99.99,,,-99.99,,2013-07-20 18:11:00,
2013-07-20 11:33:00,68.0,61.0,-100.00,SW,227,6.0,9.0,78,-99.99,,,-99.99,,2013-07-20 18:33:00,
2013-07-20 11:43:00,68.0,61.0,-100.00,SW,227,6.0,9.0,78,-99.99,,,-99.99,,2013-07-20 18:43:00,
2013-07-20 11:54:00,69.0,62.0,-100.00,SSW,192,6.0,9.0,78,-99.99,,,-99.99,,2013-07-20 18:54:00,
2013-07-20 12:23:00,68.0,62.0,-100.00,SSW,192,6.0,9.0,81,-99.99,,,-99.99,,2013-07-20 19:23:00,
2013-07-20 12:33:00,68.0,62.0,-100.00,SSW,192,6.0,9.0,81,-99.99,,,-99.99,,2013-07-20 19:33:00,
2013-07-20 12:53:00,67.0,61.0,-100.00,SSW,196,7.0,9.0,82,-99.99,,,-99.99,,2013-07-20 19:53:00,
2013-07-20 13:04:00,67.0,61.0,-100.00,SSW,196,7.0,9.0,82,-99.99,,,-99.99,,2013-07-20 20:04:00,
2013-07-20 13:12:00,67.0,61.0,-100.00,SSW,196,7.0,9.0,82,-99.99,,,-99.99,,2013-07-20 20:12:00,
2013-07-20 13:53:00,67.0,61.0,-100.00,SSW,192,6.0,9.0,81,-99.99,,,-99.99,,2013-07-20 20:53:00,
2013-07-20 14:02:00,67.0,61.0,-100.00,SSW,202,6.0,11.0,81,-99.99,,,-99.99,,2013-07-20 21:02:00,
2013-07-20 14:12:00,67.0,61.0,-100.00,SSW,202,6.0,11.0,81,-99.99,,,-99.99,,2013-07-20 21:12:00,
2013-07-20 14:53:00,68.0,61.0,-100.00,SSW,199,5.0,8.0,79,-99.99,,,-99.99,,2013-07-20 21:53:00,
2013-07-20 15:22:00,68.0,61.0,-100.00,SSW,209,5.0,7.0,78,-99.99,,,-99.99,,2013-07-20 22:22:00,
2013-07-20 15:32:00,69.0,61.0,-100.00,SW,223,5.0,8.0,77,-99.99,,,-99.99,,2013-07-20 22:32:00,
2013-07-20 15:44:00,70.0,62.0,-100.00,SSW,211,5.0,10.0,76,-99.99,,,-99.99,,2013-07-20 22:44:00,
2013-07-20 15:52:00,70.0,62.0,-100.00,SSW,211,5.0,10.0,76,-99.99,,,-99.99,,2013-07-20 22:52:00,
2013-07-20 16:13:00,70.0,62.0,-100.00,SW,214,5.0,9.0,76,-99.99,,,-99.99,,2013-07-20 23:13:00,
2013-07-20 16:23:00,71.0,62.0,-100.00,SSW,202,5.0,8.0,72,-99.99,,,-99.99,,2013-07-20 23:23:00,
2013-07-20 16:34:00,71.0,61.0,-100.00,SSW,201,6.0,10.0,70,-99.99,,,-99.99,,2013-07-20 23:34:00,
2013-07-20 16:43:00,71.0,61.0,-100.00,SSW,201,6.0,10.0,70,-99.99,,,-99.99,,2013-07-20 23:43:00,
2013-07-20 16:54:00,72.0,61.0,-100.00,SW,215,6.0,9.0,68,-99.99,,,-99.99,,2013-07-20 23:54:00,
2013-07-20 17:03:00,72.0,61.0,-100.00,SW,215,6.0,9.0,68,-99.99,,,-99.99,,2013-07-21 00:03:00,
2013-07-20 17:12:00,72.0,61.0,-100.00,SW,215,6.0,9.0,68,-99.99,,,-99.99,,2013-07-21 00:12:00,
2013-07-20 17:22:00,72.0,62.0,-100.00,SW,232,8.0,12.0,71,-99.99,,,-99.99,,2013-07-21 00:22:00,
2013-07-20 17:43:00,70.0,62.0,-100.00,SW,225,7.0,12.0,76,-99.99,,,-99.99,,2013-07-21 00:43:00,
2013-07-20 18:11:00,68.0,62.0,-100.00,WSW,241,8.0,12.0,81,-99.99,,,-99.99,,2013-07-21 01:11:00,
2013-07-20 18:33:00,67.0,62.0,-100.00,SW,225,6.0,10.0,84,-99.99,,,-99.99,,2013-07-21 01:33:00,
2013-07-20 18:44:00,-999.0,-99.9,-100.00,SW,225,6.0,9.0,-999,-99.99,,,-99.99,,2013-07-21 01:44:00,
2013-07-20 18:53:00,66.0,61.0,-100.00,SW,234,6.0,9.0,85,-99.99,,,-99.99,,2013-07-21 01:53:00,
2013-07-20 19:33:00,66.0,62.0,-100.00,WSW,249,4.0,6.0,87,-99.99,,,-99.99,,2013-07-21 02:33:00,
2013-07-20 19:42:00,66.0,62.0,-100.00,SW,231,4.0,5.0,87,-99.99,,,-99.99,,2013-07-21 02:42:00,
2013-07-20 19:53:00,66.0,62.0,-100.00,SSW,209,3.0,7.0,87,-99.99,,,-99.99,,2013-07-21 02:53:00,
2013-07-20 20:12:00,65.0,61.0,-100.00,WSW,247,3.0,5.0,87,-99.99,,,-99.99,,2013-07-21 03:12:00,
2013-07-20 20:22:00,65.0,61.0,-100.00,SW,214,2.0,5.0,88,-99.99,,,-99.99,,2013-07-21 03:22:00,
2013-07-20 20:32:00,65.0,61.0,-100.00,SW,227,3.0,4.0,88,-99.99,,,-99.99,,2013-07-21 03:32:00,
2013-07-20 21:11:00,65.0,62.0,-100.00,SSW,211,3.0,5.0,89,-99.99,,,-99.99,,2013-07-21 04:11:00,
2013-07-20 21:43:00,64.0,61.0,-100.00,South,179,4.0,6.0,89,-99.99,,,-99.99,,2013-07-21 04:43:00,
2013-07-20 21:53:00,64.0,61.0,-100.00,South,184,4.0,5.0,89,-99.99,,,-99.99,,2013-07-21 04:53:00,
2013-07-20 22:01:00,64.0,61.0,-100.00,South,179,3.0,6.0,90,-99.99,,,-99.99,,2013-07-21 05:01:00,
2013-07-20 22:11:00,64.0,61.0,-100.00,South,179,3.0,6.0,90,-99.99,,,-99.99,,2013-07-21 05:11:00,
2013-07-20 22:21:00,64.0,61.0,-100.00,SSW,196,3.0,4.0,90,-99.99,,,-99.99,,2013-07-21 05:21:00,
2013-07-20 22:32:00,64.0,61.0,-100.00,SW,232,2.0,3.0,91,-99.99,,,-99.99,,2013-07-21 05:32:00,
2013-07-20 22:42:00,64.0,61.0,-100.00,SW,232,2.0,3.0,91,-99.99,,,-99.99,,2013-07-21 05:42:00,
2013-07-20 22:52:00,64.0,61.0,-100.00,WSW,250,2.0,3.0,91,-99.99,,,-99.99,,2013-07-21 05:52:00,
2013-07-20 23:11:00,64.0,62.0,-100.00,SW,227,2.0,3.0,92,-99.99,,,-99.99,,2013-07-21 06:11:00,
2013-07-20 23:22:00,64.0,62.0,-100.00,SW,222,2.0,4.0,92,-99.99,,,-99.99,,2013-07-21 06:22:00,
2013-07-20 23:32:00,64.0,62.0,-100.00,SW,214,2.0,4.0,92,-99.99,,,-99.99,,2013-07-21 06:32:00,
2013-07-20 23:42:00,64.0,62.0,-100.00,South,189,2.0,3.0,92,-99.99,,,-99.99,,2013-07-21 06:42:00,
2013-07-20 23:52:00,64.0,62.0,-100.00,South,189,2.0,3.0,92,-99.99,,,-99.99,,2013-07-21 06:52:00,